Year,Month,Day,Hour,Minute,Value (Times are PST for temperature in C)
2014,08,25,00,00,17.70
2014,08,25,00,01,17.70
2014,08,25,00,02,17.70
2014,08,25,00,03,17.70
2014,08,25,00,04,17.70
2014,08,25,00,05,17.70
2014,08,25,00,06,17.80
2014,08,25,00,07,17.80
2014,08,25,00,08,17.80
2014,08,25,00,09,17.90
2014,08,25,00,10,17.90
2014,08,25,00,11,17.90
2014,08,25,00,12,18.00
2014,08,25,00,13,18.00
2014,08,25,00,14,18.00
2014,08,25,00,15,18.00
2014,08,25,00,16,18.00
2014,08,25,00,17,18.00
2014,08,25,00,18,17.90
2014,08,25,00,19,17.90
2014,08,25,00,20,17.90
2014,08,25,00,21,17.90
2014,08,25,00,22,17.90
2014,08,25,00,23,17.80
2014,08,25,00,24,17.80
2014,08,25,00,25,17.80
2014,08,25,00,26,17.80
2014,08,25,00,27,17.70
2014,08,25,00,28,17.70
2014,08,25,00,29,17.70
2014,08,25,00,30,17.70
2014,08,25,00,31,17.60
2014,08,25,00,32,17.60
2014,08,25,00,33,17.60
2014,08,25,00,34,17.50
2014,08,25,00,35,17.50
2014,08,25,00,36,17.40
2014,08,25,00,37,17.40
2014,08,25,00,38,17.40
2014,08,25,00,39,17.40
2014,08,25,00,40,17.30
2014,08,25,00,41,17.40
2014,08,25,00,42,17.40
2014,08,25,00,43,17.40
2014,08,25,00,44,17.40
2014,08,25,00,45,17.40
2014,08,25,00,46,17.40
2014,08,25,00,47,17.40
2014,08,25,00,48,17.40
2014,08,25,00,49,17.40
2014,08,25,00,50,17.40
2014,08,25,00,51,17.40
2014,08,25,00,52,17.40
2014,08,25,00,53,17.40
2014,08,25,00,54,17.30
2014,08,25,00,55,17.30
2014,08,25,00,56,17.30
2014,08,25,00,57,17.30
2014,08,25,00,58,17.30
2014,08,25,00,59,17.30
2014,08,25,01,00,17.30
2014,08,25,01,01,17.30
2014,08,25,01,02,17.30
2014,08,25,01,03,17.20
2014,08,25,01,04,17.20
2014,08,25,01,05,17.20
2014,08,25,01,06,17.20
2014,08,25,01,07,17.20
2014,08,25,01,08,17.20
2014,08,25,01,09,17.20
2014,08,25,01,10,17.20
2014,08,25,01,11,17.10
2014,08,25,01,12,17.10
2014,08,25,01,13,17.10
2014,08,25,01,14,17.10
2014,08,25,01,15,17.10
2014,08,25,01,16,17.10
2014,08,25,01,17,17.10
2014,08,25,01,18,17.10
2014,08,25,01,19,17.10
2014,08,25,01,20,17.10
2014,08,25,01,21,17.20
2014,08,25,01,22,17.20
2014,08,25,01,23,17.20
2014,08,25,01,24,17.20
2014,08,25,01,25,17.20
2014,08,25,01,26,17.20
2014,08,25,01,27,17.20
2014,08,25,01,28,17.20
2014,08,25,01,29,17.20
2014,08,25,01,30,17.20
2014,08,25,01,31,17.20
2014,08,25,01,32,17.20
2014,08,25,01,33,17.20
2014,08,25,01,34,17.20
2014,08,25,01,35,17.20
2014,08,25,01,36,17.20
2014,08,25,01,37,17.20
2014,08,25,01,38,17.20
2014,08,25,01,39,17.20
2014,08,25,01,40,17.20
2014,08,25,01,41,17.20
2014,08,25,01,42,17.20
2014,08,25,01,43,17.20
2014,08,25,01,44,17.20
2014,08,25,01,45,17.20
2014,08,25,01,46,17.10
2014,08,25,01,47,17.10
2014,08,25,01,48,17.10
2014,08,25,01,49,17.10
2014,08,25,01,50,17.10
2014,08,25,01,51,17.00
2014,08,25,01,52,17.00
2014,08,25,01,53,17.00
2014,08,25,01,54,17.00
2014,08,25,01,55,16.90
2014,08,25,01,56,16.90
2014,08,25,01,57,16.90
2014,08,25,01,58,16.90
2014,08,25,01,59,16.90
2014,08,25,02,00,16.90
2014,08,25,02,01,16.90
2014,08,25,02,02,16.90
2014,08,25,02,03,16.90
2014,08,25,02,04,16.80
2014,08,25,02,05,16.80
2014,08,25,02,06,16.80
2014,08,25,02,07,16.80
2014,08,25,02,08,16.80
2014,08,25,02,09,16.80
2014,08,25,02,10,16.70
2014,08,25,02,11,16.70
2014,08,25,02,12,16.70
2014,08,25,02,13,16.70
2014,08,25,02,14,16.70
2014,08,25,02,15,16.70
2014,08,25,02,16,16.60
2014,08,25,02,17,16.60
2014,08,25,02,18,16.60
2014,08,25,02,19,16.50
2014,08,25,02,20,16.50
2014,08,25,02,21,16.40
2014,08,25,02,22,16.40
2014,08,25,02,23,16.30
2014,08,25,02,24,16.30
2014,08,25,02,25,16.30
2014,08,25,02,26,16.20
2014,08,25,02,27,16.20
2014,08,25,02,28,16.20
2014,08,25,02,29,16.10
2014,08,25,02,30,16.00
2014,08,25,02,31,16.00
2014,08,25,02,32,15.90
2014,08,25,02,33,15.90
2014,08,25,02,34,15.80
2014,08,25,02,35,15.70
2014,08,25,02,36,15.70
2014,08,25,02,37,15.60
2014,08,25,02,38,15.60
2014,08,25,02,39,15.50
2014,08,25,02,40,15.40
2014,08,25,02,41,15.40
2014,08,25,02,42,15.30
2014,08,25,02,43,15.30
2014,08,25,02,44,15.20
2014,08,25,02,45,15.20
2014,08,25,02,46,15.20
2014,08,25,02,47,15.20
2014,08,25,02,48,15.10
2014,08,25,02,49,15.10
2014,08,25,02,50,15.10
2014,08,25,02,51,15.10
2014,08,25,02,52,15.00
2014,08,25,02,53,15.00
2014,08,25,02,54,15.00
2014,08,25,02,55,15.00
2014,08,25,02,56,15.00
2014,08,25,02,57,15.00
2014,08,25,02,58,15.00
2014,08,25,02,59,15.00
2014,08,25,03,00,15.10
2014,08,25,03,01,15.10
2014,08,25,03,02,15.10
2014,08,25,03,03,15.20
2014,08,25,03,04,15.20
2014,08,25,03,05,15.20
2014,08,25,03,06,15.30
2014,08,25,03,07,15.30
2014,08,25,03,08,15.30
2014,08,25,03,09,15.40
2014,08,25,03,10,15.40
2014,08,25,03,11,15.40
2014,08,25,03,12,15.50
2014,08,25,03,13,15.50
2014,08,25,03,14,15.50
2014,08,25,03,15,15.60
2014,08,25,03,16,15.60
2014,08,25,03,17,15.60
2014,08,25,03,18,15.60
2014,08,25,03,19,15.60
2014,08,25,03,20,15.60
2014,08,25,03,21,15.60
2014,08,25,03,22,15.60
2014,08,25,03,23,15.50
2014,08,25,03,24,15.50
2014,08,25,03,25,15.50
2014,08,25,03,26,15.40
2014,08,25,03,27,15.40
2014,08,25,03,28,15.40
2014,08,25,03,29,15.40
2014,08,25,03,30,15.40
2014,08,25,03,31,15.30
2014,08,25,03,32,15.30
2014,08,25,03,33,15.30
2014,08,25,03,34,15.30
2014,08,25,03,35,15.20
2014,08,25,03,36,15.20
2014,08,25,03,37,15.20
2014,08,25,03,38,15.20
2014,08,25,03,39,15.20
2014,08,25,03,40,15.10
2014,08,25,03,41,15.10
2014,08,25,03,42,15.00
2014,08,25,03,43,15.00
2014,08,25,03,44,14.90
2014,08,25,03,45,14.90
2014,08,25,03,46,14.90
2014,08,25,03,47,14.80
2014,08,25,03,48,14.80
2014,08,25,03,49,14.80
2014,08,25,03,50,14.80
2014,08,25,03,51,14.70
2014,08,25,03,52,14.70
2014,08,25,03,53,14.70
2014,08,25,03,54,14.70
2014,08,25,03,55,14.70
2014,08,25,03,56,14.60
2014,08,25,03,57,14.60
2014,08,25,03,58,14.60
2014,08,25,03,59,14.50
2014,08,25,04,00,14.50
2014,08,25,04,01,14.40
2014,08,25,04,02,14.40
2014,08,25,04,03,14.40
2014,08,25,04,04,14.40
2014,08,25,04,05,14.30
2014,08,25,04,06,14.30
2014,08,25,04,07,14.30
2014,08,25,04,08,14.30
2014,08,25,04,09,14.30
2014,08,25,04,10,14.30
2014,08,25,04,11,14.20
2014,08,25,04,12,14.20
2014,08,25,04,13,14.20
2014,08,25,04,14,14.20
2014,08,25,04,15,14.20
2014,08,25,04,16,14.20
2014,08,25,04,17,14.20
2014,08,25,04,18,14.20
2014,08,25,04,19,14.30
2014,08,25,04,20,14.30
2014,08,25,04,21,14.30
2014,08,25,04,22,14.30
2014,08,25,04,23,14.20
2014,08,25,04,24,14.20
2014,08,25,04,25,14.20
2014,08,25,04,26,14.20
2014,08,25,04,27,14.20
2014,08,25,04,28,14.20
2014,08,25,04,29,14.20
2014,08,25,04,30,14.20
2014,08,25,04,31,14.20
2014,08,25,04,32,14.20
2014,08,25,04,33,14.30
2014,08,25,04,34,14.30
2014,08,25,04,35,14.30
2014,08,25,04,36,14.30
2014,08,25,04,37,14.30
2014,08,25,04,38,14.30
2014,08,25,04,39,14.30
2014,08,25,04,40,14.20
2014,08,25,04,41,14.30
2014,08,25,04,42,14.30
2014,08,25,04,43,14.30
2014,08,25,04,44,14.30
2014,08,25,04,45,14.30
2014,08,25,04,46,14.30
2014,08,25,04,47,14.30
2014,08,25,04,48,14.40
2014,08,25,04,49,14.40
2014,08,25,04,50,14.40
2014,08,25,04,51,14.50
2014,08,25,04,52,14.50
2014,08,25,04,53,14.60
2014,08,25,04,54,14.60
2014,08,25,04,55,14.60
2014,08,25,04,56,14.70
2014,08,25,04,57,14.80
2014,08,25,04,58,14.80
2014,08,25,04,59,14.80
2014,08,25,05,00,14.90
2014,08,25,05,01,14.90
2014,08,25,05,02,14.90
2014,08,25,05,03,14.90
2014,08,25,05,04,15.00
2014,08,25,05,05,15.00
2014,08,25,05,06,15.00
2014,08,25,05,07,15.00
2014,08,25,05,08,15.00
2014,08,25,05,09,15.00
2014,08,25,05,10,15.00
2014,08,25,05,11,15.00
2014,08,25,05,12,15.00
2014,08,25,05,13,15.00
2014,08,25,05,14,15.00
2014,08,25,05,15,15.00
2014,08,25,05,16,15.00
2014,08,25,05,17,15.00
2014,08,25,05,18,14.90
2014,08,25,05,19,14.90
2014,08,25,05,20,14.90
2014,08,25,05,21,14.90
2014,08,25,05,22,14.90
2014,08,25,05,23,14.90
2014,08,25,05,24,14.90
2014,08,25,05,25,14.80
2014,08,25,05,26,14.80
2014,08,25,05,27,14.80
2014,08,25,05,28,14.80
2014,08,25,05,29,14.80
2014,08,25,05,30,14.80
2014,08,25,05,31,14.70
2014,08,25,05,32,14.70
2014,08,25,05,33,14.70
2014,08,25,05,34,14.70
2014,08,25,05,35,14.70
2014,08,25,05,36,14.70
2014,08,25,05,37,14.60
2014,08,25,05,38,14.60
2014,08,25,05,39,14.60
2014,08,25,05,40,14.60
2014,08,25,05,41,14.60
2014,08,25,05,42,14.50
2014,08,25,05,43,14.50
2014,08,25,05,44,14.50
2014,08,25,05,45,14.50
2014,08,25,05,46,14.50
2014,08,25,05,47,14.50
2014,08,25,05,48,14.40
2014,08,25,05,49,14.40
2014,08,25,05,50,14.40
2014,08,25,05,51,14.40
2014,08,25,05,52,14.40
2014,08,25,05,53,14.40
2014,08,25,05,54,14.40
2014,08,25,05,55,14.30
2014,08,25,05,56,14.30
2014,08,25,05,57,14.30
2014,08,25,05,58,14.20
2014,08,25,05,59,14.20
2014,08,25,06,00,14.10
2014,08,25,06,01,14.10
2014,08,25,06,02,14.10
2014,08,25,06,03,14.00
2014,08,25,06,04,14.00
2014,08,25,06,05,14.00
2014,08,25,06,06,13.90
2014,08,25,06,07,13.90
2014,08,25,06,08,13.90
2014,08,25,06,09,13.90
2014,08,25,06,10,13.80
2014,08,25,06,11,13.80
2014,08,25,06,12,13.80
2014,08,25,06,13,13.80
2014,08,25,06,14,13.80
2014,08,25,06,15,13.80
2014,08,25,06,16,13.80
2014,08,25,06,17,13.80
2014,08,25,06,18,13.80
2014,08,25,06,19,13.80
2014,08,25,06,20,13.80
2014,08,25,06,21,13.70
2014,08,25,06,22,13.70
2014,08,25,06,23,13.70
2014,08,25,06,24,13.70
2014,08,25,06,25,13.70
2014,08,25,06,26,13.70
2014,08,25,06,27,13.70
2014,08,25,06,28,13.60
2014,08,25,06,29,13.60
2014,08,25,06,30,13.60
2014,08,25,06,31,13.60
2014,08,25,06,32,13.60
2014,08,25,06,33,13.60
2014,08,25,06,34,13.60
2014,08,25,06,35,13.50
2014,08,25,06,36,13.50
2014,08,25,06,37,13.50
2014,08,25,06,38,13.50
2014,08,25,06,39,13.50
2014,08,25,06,40,13.50
2014,08,25,06,41,13.40
2014,08,25,06,42,13.40
2014,08,25,06,43,13.40
2014,08,25,06,44,13.40
2014,08,25,06,45,13.40
2014,08,25,06,46,13.40
2014,08,25,06,47,13.40
2014,08,25,06,48,13.40
2014,08,25,06,49,13.40
2014,08,25,06,50,13.30
2014,08,25,06,51,13.30
2014,08,25,06,52,13.30
2014,08,25,06,53,13.40
2014,08,25,06,54,13.40
2014,08,25,06,55,13.40
2014,08,25,06,56,13.40
2014,08,25,06,57,13.40
2014,08,25,06,58,13.40
2014,08,25,06,59,13.40
2014,08,25,07,00,13.40
2014,08,25,07,01,13.30
2014,08,25,07,02,13.30
2014,08,25,07,03,13.30
2014,08,25,07,04,13.30
2014,08,25,07,05,13.30
2014,08,25,07,06,13.30
2014,08,25,07,07,13.30
2014,08,25,07,08,13.30
2014,08,25,07,09,13.30
2014,08,25,07,10,13.30
2014,08,25,07,11,13.30
2014,08,25,07,12,13.30
2014,08,25,07,13,13.30
2014,08,25,07,14,13.30
2014,08,25,07,15,13.30
2014,08,25,07,16,13.40
2014,08,25,07,17,13.40
2014,08,25,07,18,13.40
2014,08,25,07,19,13.40
2014,08,25,07,20,13.40
2014,08,25,07,21,13.50
2014,08,25,07,22,13.50
2014,08,25,07,23,13.50
2014,08,25,07,24,13.60
2014,08,25,07,25,13.60
2014,08,25,07,26,13.70
2014,08,25,07,27,13.70
2014,08,25,07,28,13.80
2014,08,25,07,29,13.80
2014,08,25,07,30,13.90
2014,08,25,07,31,13.90
2014,08,25,07,32,13.90
2014,08,25,07,33,14.00
2014,08,25,07,34,14.00
2014,08,25,07,35,14.00
2014,08,25,07,36,14.00
2014,08,25,07,37,14.10
2014,08,25,07,38,14.10
2014,08,25,07,39,14.10
2014,08,25,07,40,14.10
2014,08,25,07,41,14.20
2014,08,25,07,42,14.20
2014,08,25,07,43,14.30
2014,08,25,07,44,14.30
2014,08,25,07,45,14.40
2014,08,25,07,46,14.40
2014,08,25,07,47,14.40
2014,08,25,07,48,14.50
2014,08,25,07,49,14.50
2014,08,25,07,50,14.60
2014,08,25,07,51,14.70
2014,08,25,07,52,14.70
2014,08,25,07,53,14.80
2014,08,25,07,54,14.80
2014,08,25,07,55,14.90
2014,08,25,07,56,14.90
2014,08,25,07,57,14.90
2014,08,25,07,58,15.00
2014,08,25,07,59,15.00
2014,08,25,08,00,15.10
2014,08,25,08,01,15.10
2014,08,25,08,02,15.10
2014,08,25,08,03,15.20
2014,08,25,08,04,15.20
2014,08,25,08,05,15.30
2014,08,25,08,06,15.30
2014,08,25,08,07,15.40
2014,08,25,08,08,15.50
2014,08,25,08,09,15.60
2014,08,25,08,10,15.70
2014,08,25,08,11,15.80
2014,08,25,08,12,15.90
2014,08,25,08,13,16.10
2014,08,25,08,14,16.20
2014,08,25,08,15,16.30
2014,08,25,08,16,16.30
2014,08,25,08,17,16.40
2014,08,25,08,18,16.50
2014,08,25,08,19,16.70
2014,08,25,08,20,16.80
2014,08,25,08,21,16.90
2014,08,25,08,22,17.00
2014,08,25,08,23,17.10
2014,08,25,08,24,17.20
2014,08,25,08,25,17.30
2014,08,25,08,26,17.30
2014,08,25,08,27,17.40
2014,08,25,08,28,17.40
2014,08,25,08,29,17.40
2014,08,25,08,30,17.50
2014,08,25,08,31,17.50
2014,08,25,08,32,17.50
2014,08,25,08,33,17.60
2014,08,25,08,34,17.60
2014,08,25,08,35,17.60
2014,08,25,08,36,17.50
2014,08,25,08,37,17.50
2014,08,25,08,38,17.40
2014,08,25,08,39,17.40
2014,08,25,08,40,17.30
2014,08,25,08,41,17.30
2014,08,25,08,42,17.30
2014,08,25,08,43,17.30
2014,08,25,08,44,17.30
2014,08,25,08,45,17.30
2014,08,25,08,46,17.30
2014,08,25,08,47,17.30
2014,08,25,08,48,17.40
2014,08,25,08,49,17.40
2014,08,25,08,50,17.50
2014,08,25,08,51,17.50
2014,08,25,08,52,17.50
2014,08,25,08,53,17.50
2014,08,25,08,54,17.50
2014,08,25,08,55,17.60
2014,08,25,08,56,17.60
2014,08,25,08,57,17.60
2014,08,25,08,58,17.60
2014,08,25,08,59,17.60
2014,08,25,09,00,17.60
2014,08,25,09,01,17.60
2014,08,25,09,02,17.60
2014,08,25,09,03,17.60
2014,08,25,09,04,17.60
2014,08,25,09,05,17.60
2014,08,25,09,06,17.60
2014,08,25,09,07,17.60
2014,08,25,09,08,17.60
2014,08,25,09,09,17.70
2014,08,25,09,10,17.70
2014,08,25,09,11,17.80
2014,08,25,09,12,17.90
2014,08,25,09,13,17.90
2014,08,25,09,14,18.00
2014,08,25,09,15,18.00
2014,08,25,09,16,18.10
2014,08,25,09,17,18.10
2014,08,25,09,18,18.20
2014,08,25,09,19,18.20
2014,08,25,09,20,18.30
2014,08,25,09,21,18.30
2014,08,25,09,22,18.30
2014,08,25,09,23,18.30
2014,08,25,09,24,18.30
2014,08,25,09,25,18.20
2014,08,25,09,26,18.20
2014,08,25,09,27,18.20
2014,08,25,09,28,18.20
2014,08,25,09,29,18.20
2014,08,25,09,30,18.20
2014,08,25,09,31,18.20
2014,08,25,09,32,18.20
2014,08,25,09,33,18.20
2014,08,25,09,34,18.20
2014,08,25,09,35,18.30
2014,08,25,09,36,18.30
2014,08,25,09,37,18.40
2014,08,25,09,38,18.50
2014,08,25,09,39,18.60
2014,08,25,09,40,18.70
2014,08,25,09,41,18.70
2014,08,25,09,42,18.80
2014,08,25,09,43,18.80
2014,08,25,09,44,18.80
2014,08,25,09,45,18.90
2014,08,25,09,46,19.00
2014,08,25,09,47,19.00
2014,08,25,09,48,19.10
2014,08,25,09,49,19.10
2014,08,25,09,50,19.20
2014,08,25,09,51,19.20
2014,08,25,09,52,19.20
2014,08,25,09,53,19.20
2014,08,25,09,54,19.20
2014,08,25,09,55,19.30
2014,08,25,09,56,19.30
2014,08,25,09,57,19.30
2014,08,25,09,58,19.40
2014,08,25,09,59,19.50
2014,08,25,10,00,19.60
2014,08,25,10,01,19.70
2014,08,25,10,02,19.80
2014,08,25,10,03,19.90
2014,08,25,10,04,19.90
2014,08,25,10,05,19.90
2014,08,25,10,06,19.90
2014,08,25,10,07,19.90
2014,08,25,10,08,19.90
2014,08,25,10,09,19.90
2014,08,25,10,10,19.80
2014,08,25,10,11,19.80
2014,08,25,10,12,19.80
2014,08,25,10,13,19.80
2014,08,25,10,14,19.80
2014,08,25,10,15,19.90
2014,08,25,10,16,19.90
2014,08,25,10,17,19.90
2014,08,25,10,18,19.90
2014,08,25,10,19,19.90
2014,08,25,10,20,20.00
2014,08,25,10,21,20.10
2014,08,25,10,22,20.10
2014,08,25,10,23,20.10
2014,08,25,10,24,20.10
2014,08,25,10,25,20.10
2014,08,25,10,26,20.10
2014,08,25,10,27,20.20
2014,08,25,10,28,20.30
2014,08,25,10,29,20.40
2014,08,25,10,30,20.50
2014,08,25,10,31,20.60
2014,08,25,10,32,20.70
2014,08,25,10,33,20.60
2014,08,25,10,34,20.50
2014,08,25,10,35,20.50
2014,08,25,10,36,20.50
2014,08,25,10,37,20.50
2014,08,25,10,38,20.50
2014,08,25,10,39,20.50
2014,08,25,10,40,20.50
2014,08,25,10,41,20.60
2014,08,25,10,42,20.70
2014,08,25,10,43,20.70
2014,08,25,10,44,20.70
2014,08,25,10,45,20.70
2014,08,25,10,46,20.80
2014,08,25,10,47,20.90
2014,08,25,10,48,21.00
2014,08,25,10,49,21.00
2014,08,25,10,50,21.10
2014,08,25,10,51,21.20
2014,08,25,10,52,21.30
2014,08,25,10,53,21.40
2014,08,25,10,54,21.40
2014,08,25,10,55,21.50
2014,08,25,10,56,21.50
2014,08,25,10,57,21.50
2014,08,25,10,58,21.50
2014,08,25,10,59,21.60
2014,08,25,11,00,21.70
2014,08,25,11,01,21.80
2014,08,25,11,02,22.00
2014,08,25,11,03,22.10
2014,08,25,11,04,22.10
2014,08,25,11,05,22.10
2014,08,25,11,06,22.10
2014,08,25,11,07,22.20
2014,08,25,11,08,22.20
2014,08,25,11,09,22.30
2014,08,25,11,10,22.40
2014,08,25,11,11,22.40
2014,08,25,11,12,22.40
2014,08,25,11,13,22.40
2014,08,25,11,14,22.50
2014,08,25,11,15,22.70
2014,08,25,11,16,22.80
2014,08,25,11,17,22.80
2014,08,25,11,18,22.80
2014,08,25,11,19,22.90
2014,08,25,11,20,22.90
2014,08,25,11,21,22.90
2014,08,25,11,22,23.00
2014,08,25,11,23,23.00
2014,08,25,11,24,23.10
2014,08,25,11,25,23.20
2014,08,25,11,26,23.20
2014,08,25,11,27,23.20
2014,08,25,11,28,23.30
2014,08,25,11,29,23.40
2014,08,25,11,30,23.40
2014,08,25,11,31,23.30
2014,08,25,11,32,23.30
2014,08,25,11,33,23.30
2014,08,25,11,34,23.20
2014,08,25,11,35,23.10
2014,08,25,11,36,23.00
2014,08,25,11,37,22.90
2014,08,25,11,38,22.80
2014,08,25,11,39,22.80
2014,08,25,11,40,22.80
2014,08,25,11,41,22.90
2014,08,25,11,42,22.80
2014,08,25,11,43,22.70
2014,08,25,11,44,22.70
2014,08,25,11,45,22.70
2014,08,25,11,46,22.70
2014,08,25,11,47,22.70
2014,08,25,11,48,22.80
2014,08,25,11,49,22.80
2014,08,25,11,50,22.80
2014,08,25,11,51,22.80
2014,08,25,11,52,22.80
2014,08,25,11,53,22.70
2014,08,25,11,54,22.60
2014,08,25,11,55,22.50
2014,08,25,11,56,22.40
2014,08,25,11,57,22.30
2014,08,25,11,58,22.20
2014,08,25,11,59,22.10
2014,08,25,12,00,22.00
2014,08,25,12,01,21.90
2014,08,25,12,02,21.80
2014,08,25,12,03,21.70
2014,08,25,12,04,21.60
2014,08,25,12,05,21.50
2014,08,25,12,06,21.50
2014,08,25,12,07,21.40
2014,08,25,12,08,21.40
2014,08,25,12,09,21.40
2014,08,25,12,10,21.40
2014,08,25,12,11,21.30
2014,08,25,12,12,21.30
2014,08,25,12,13,21.20
2014,08,25,12,14,21.20
2014,08,25,12,15,21.20
2014,08,25,12,16,21.10
2014,08,25,12,17,21.10
2014,08,25,12,18,21.00
2014,08,25,12,19,21.00
2014,08,25,12,20,20.90
2014,08,25,12,21,20.90
2014,08,25,12,22,20.90
2014,08,25,12,23,20.90
2014,08,25,12,24,20.90
2014,08,25,12,25,20.90
2014,08,25,12,26,20.90
2014,08,25,12,27,20.80
2014,08,25,12,28,20.80
2014,08,25,12,29,20.80
2014,08,25,12,30,20.90
2014,08,25,12,31,20.90
2014,08,25,12,32,20.90
2014,08,25,12,33,21.00
2014,08,25,12,34,21.00
2014,08,25,12,35,21.00
2014,08,25,12,36,21.00
2014,08,25,12,37,20.90
2014,08,25,12,38,20.90
2014,08,25,12,39,20.90
2014,08,25,12,40,20.90
2014,08,25,12,41,20.90
2014,08,25,12,42,20.90
2014,08,25,12,43,20.90
2014,08,25,12,44,20.80
2014,08,25,12,45,20.80
2014,08,25,12,46,20.80
2014,08,25,12,47,20.80
2014,08,25,12,48,20.80
2014,08,25,12,49,20.80
2014,08,25,12,50,20.80
2014,08,25,12,51,20.90
2014,08,25,12,52,20.90
2014,08,25,12,53,20.90
2014,08,25,12,54,20.90
2014,08,25,12,55,21.00
2014,08,25,12,56,21.00
2014,08,25,12,57,21.10
2014,08,25,12,58,21.10
2014,08,25,12,59,21.20
2014,08,25,13,00,21.20
2014,08,25,13,01,21.20
2014,08,25,13,02,21.30
2014,08,25,13,03,21.30
2014,08,25,13,04,21.40
2014,08,25,13,05,21.40
2014,08,25,13,06,21.40
2014,08,25,13,07,21.50
2014,08,25,13,08,21.50
2014,08,25,13,09,21.50
2014,08,25,13,10,21.60
2014,08,25,13,11,21.60
2014,08,25,13,12,21.70
2014,08,25,13,13,21.70
2014,08,25,13,14,21.70
2014,08,25,13,15,21.80
2014,08,25,13,16,21.80
2014,08,25,13,17,21.80
2014,08,25,13,18,21.80
2014,08,25,13,19,21.80
2014,08,25,13,20,21.80
2014,08,25,13,21,21.90
2014,08,25,13,22,21.90
2014,08,25,13,23,21.90
2014,08,25,13,24,21.90
2014,08,25,13,25,21.90
2014,08,25,13,26,21.90
2014,08,25,13,27,22.00
2014,08,25,13,28,22.10
2014,08,25,13,29,22.10
2014,08,25,13,30,22.20
2014,08,25,13,31,22.10
2014,08,25,13,32,22.10
2014,08,25,13,33,22.10
2014,08,25,13,34,22.00
2014,08,25,13,35,21.90
2014,08,25,13,36,21.90
2014,08,25,13,37,21.80
2014,08,25,13,38,21.90
2014,08,25,13,39,21.90
2014,08,25,13,40,21.90
2014,08,25,13,41,21.90
2014,08,25,13,42,21.90
2014,08,25,13,43,21.90
2014,08,25,13,44,21.90
2014,08,25,13,45,21.90
2014,08,25,13,46,21.90
2014,08,25,13,47,21.80
2014,08,25,13,48,21.80
2014,08,25,13,49,21.80
2014,08,25,13,50,21.80
2014,08,25,13,51,21.80
2014,08,25,13,52,21.80
2014,08,25,13,53,21.80
2014,08,25,13,54,21.80
2014,08,25,13,55,21.90
2014,08,25,13,56,21.90
2014,08,25,13,57,21.90
2014,08,25,13,58,21.90
2014,08,25,13,59,21.90
2014,08,25,14,00,21.90
2014,08,25,14,01,21.90
2014,08,25,14,02,21.90
2014,08,25,14,03,21.90
2014,08,25,14,04,21.90
2014,08,25,14,05,21.90
2014,08,25,14,06,21.90
2014,08,25,14,07,22.00
2014,08,25,14,08,22.00
2014,08,25,14,09,22.10
2014,08,25,14,10,22.20
2014,08,25,14,11,22.20
2014,08,25,14,12,22.20
2014,08,25,14,13,22.20
2014,08,25,14,14,22.20
2014,08,25,14,15,22.20
2014,08,25,14,16,22.20
2014,08,25,14,17,22.20
2014,08,25,14,18,22.20
2014,08,25,14,19,22.20
2014,08,25,14,20,22.20
2014,08,25,14,21,22.20
2014,08,25,14,22,22.30
2014,08,25,14,23,22.30
2014,08,25,14,24,22.30
2014,08,25,14,25,22.30
2014,08,25,14,26,22.30
2014,08,25,14,27,22.30
2014,08,25,14,28,22.30
2014,08,25,14,29,22.30
2014,08,25,14,30,22.30
2014,08,25,14,31,22.30
2014,08,25,14,32,22.30
2014,08,25,14,33,22.30
2014,08,25,14,34,22.30
2014,08,25,14,35,22.40
2014,08,25,14,36,22.40
2014,08,25,14,37,22.50
2014,08,25,14,38,22.60
2014,08,25,14,39,22.60
2014,08,25,14,40,22.70
2014,08,25,14,41,22.70
2014,08,25,14,42,22.70
2014,08,25,14,43,22.70
2014,08,25,14,44,22.60
2014,08,25,14,45,22.60
2014,08,25,14,46,22.60
2014,08,25,14,47,22.60
2014,08,25,14,48,22.60
2014,08,25,14,49,22.60
2014,08,25,14,50,22.60
2014,08,25,14,51,22.60
2014,08,25,14,52,22.60
2014,08,25,14,53,22.70
2014,08,25,14,54,22.70
2014,08,25,14,55,22.70
2014,08,25,14,56,22.70
2014,08,25,14,57,22.70
2014,08,25,14,58,22.80
2014,08,25,14,59,22.80
2014,08,25,15,00,22.90
2014,08,25,15,01,22.90
2014,08,25,15,02,23.00
2014,08,25,15,03,22.90
2014,08,25,15,04,23.00
2014,08,25,15,05,23.00
2014,08,25,15,06,23.10
2014,08,25,15,07,23.10
2014,08,25,15,08,23.10
2014,08,25,15,09,23.20
2014,08,25,15,10,23.20
2014,08,25,15,11,23.20
2014,08,25,15,12,23.20
2014,08,25,15,13,23.20
2014,08,25,15,14,23.30
2014,08,25,15,15,23.30
2014,08,25,15,16,23.30
2014,08,25,15,17,23.30
2014,08,25,15,18,23.40
2014,08,25,15,19,23.30
2014,08,25,15,20,23.30
2014,08,25,15,21,23.30
2014,08,25,15,22,23.40
2014,08,25,15,23,23.50
2014,08,25,15,24,23.50
2014,08,25,15,25,23.60
2014,08,25,15,26,23.60
2014,08,25,15,27,23.70
2014,08,25,15,28,23.70
2014,08,25,15,29,23.70
2014,08,25,15,30,23.80
2014,08,25,15,31,23.80
2014,08,25,15,32,23.80
2014,08,25,15,33,23.90
2014,08,25,15,34,23.90
2014,08,25,15,35,23.90
2014,08,25,15,36,24.00
2014,08,25,15,37,24.00
2014,08,25,15,38,24.00
2014,08,25,15,39,24.00
2014,08,25,15,40,24.00
2014,08,25,15,41,24.00
2014,08,25,15,42,24.00
2014,08,25,15,43,24.00
2014,08,25,15,44,24.00
2014,08,25,15,45,24.10
2014,08,25,15,46,24.20
2014,08,25,15,47,24.20
2014,08,25,15,48,24.30
2014,08,25,15,49,24.40
2014,08,25,15,50,24.50
2014,08,25,15,51,24.50
2014,08,25,15,52,24.60
2014,08,25,15,53,24.70
2014,08,25,15,54,24.70
2014,08,25,15,55,24.80
2014,08,25,15,56,24.80
2014,08,25,15,57,24.80
2014,08,25,15,58,24.80
2014,08,25,15,59,24.80
2014,08,25,16,00,24.80
2014,08,25,16,01,24.80
2014,08,25,16,02,24.80
2014,08,25,16,03,24.80
2014,08,25,16,04,24.80
2014,08,25,16,05,24.80
2014,08,25,16,06,24.80
2014,08,25,16,07,24.80
2014,08,25,16,08,24.90
2014,08,25,16,09,25.00
2014,08,25,16,10,25.00
2014,08,25,16,11,25.10
2014,08,25,16,12,25.20
2014,08,25,16,13,25.30
2014,08,25,16,14,25.40
2014,08,25,16,15,25.50
2014,08,25,16,16,25.60
2014,08,25,16,17,25.60
2014,08,25,16,18,25.70
2014,08,25,16,19,25.70
2014,08,25,16,20,25.80
2014,08,25,16,21,25.80
2014,08,25,16,22,25.80
2014,08,25,16,23,25.70
2014,08,25,16,24,25.70
2014,08,25,16,25,25.70
2014,08,25,16,26,25.70
2014,08,25,16,27,25.60
2014,08,25,16,28,25.60
2014,08,25,16,29,25.70
2014,08,25,16,30,25.70
2014,08,25,16,31,25.70
2014,08,25,16,32,25.70
2014,08,25,16,33,25.70
2014,08,25,16,34,25.70
2014,08,25,16,35,25.60
2014,08,25,16,36,25.60
2014,08,25,16,37,25.50
2014,08,25,16,38,25.50
2014,08,25,16,39,25.40
2014,08,25,16,40,25.40
2014,08,25,16,41,25.50
2014,08,25,16,42,25.50
2014,08,25,16,43,25.50
2014,08,25,16,44,25.50
2014,08,25,16,45,25.50
2014,08,25,16,46,25.40
2014,08,25,16,47,25.30
2014,08,25,16,48,25.30
2014,08,25,16,49,25.30
2014,08,25,16,50,25.20
2014,08,25,16,51,25.20
2014,08,25,16,52,25.20
2014,08,25,16,53,25.30
2014,08,25,16,54,25.30
2014,08,25,16,55,25.30
2014,08,25,16,56,25.30
2014,08,25,16,57,25.30
2014,08,25,16,58,25.30
2014,08,25,16,59,25.30
2014,08,25,17,00,25.30
2014,08,25,17,01,25.30
2014,08,25,17,02,25.30
2014,08,25,17,03,25.30
2014,08,25,17,04,25.30
2014,08,25,17,05,25.20
2014,08,25,17,06,25.20
2014,08,25,17,07,25.20
2014,08,25,17,08,25.20
2014,08,25,17,09,25.20
2014,08,25,17,10,25.20
2014,08,25,17,11,25.10
2014,08,25,17,12,25.10
2014,08,25,17,13,25.00
2014,08,25,17,14,25.00
2014,08,25,17,15,24.90
2014,08,25,17,16,24.90
2014,08,25,17,17,24.80
2014,08,25,17,18,24.80
2014,08,25,17,19,24.80